THOR ABLESTAR DEB, 147

Orbit data source: Space-Track

THOR ABLESTAR DEB, 147 is space debris in LEO originally from a launch on Thu, 29 Jun 1961 UTC launched from the Air Force Eastern Test Range (AFETR). Debris objects in space refer to the collection of defunct objects orbiting the Earth. Examples of debris include non-operational satellites, rocket bodies, and fragments generated from explosions, collisions, or faulty payload assembly.

Loading next visibility...
THOR ABLESTAR DEB details
Identifier
147, 1961-015AH
Orbit
LEO
Last TLE update19 hours ago
Origin
Flag of USUSAF SSD (US)
ManufacturerUnknown
MissionSpacecraft
Bus & MotorUnknown
MassUnknown
Launch date (UTC)
1961-06-29 (64 years ago)
Launch vehicleUnknown
Launch site
Air Force Eastern Test Range (AFETR)
Object type
Payload
Rocket body
Debris
Shape & HBRUnknown
Radar Cross SectionMedium (>0.1 m² and <1 m²)

Expand to show TLE details & history

TLE from 19 hours ago
0 THOR ABLESTAR DEB
1 00147U 61015AH  25042.76915721  .00001723  00000-0  79266-3 0  9992
2 00147  66.6164 194.5183 0047620  55.7948 304.7645 14.22947082264652
Epoch: 2025-02-11T18:27Z
Definitive object data (Epoch: 2025-02-11T18:27:35.182Z)
Latitude-0.00004°
Longitude135.55246°
Altitude798.072 km
Speed7.465 km/s
True Right ascension12h 58m 04s
True Declination0° 00' 00"
Sunlit
Object was in full shadow at TLE epoch
Visualization TLE readout
Latitude39.11327°
Longitude153.99435°
Altitude786.526 km
Speed7.482 km/s
Apparent Right ascension10h 07m 25s
Apparent Declination11° 03' 38"
Sunlit
Object is in daylight
Visualization observer readout
Local Sidereal Time15:43:51
Azimuth274.831° WNW
Elevation11.558°
Doppler factor1
Orbital elements
Apogee altitude848.041 km
Perigee altitude779.545 km
Semi-major axis7,191.93 km
Eccentricity0.004762
Inclination66.6164°
RAAN194.5183°
Arg. of periapsis55.7948°
True anomaly304.3147°
Mean anomaly304.7645°
Eccentric anomaly304.53975°
Mean motion3.55857 °/min
BSTAR0.00079266
Orbital period101.16 mins
Loading maneuver chart data...

THOR ABLESTAR DEB Visibility forecast

Observer location: undefined°, undefined

Span
Click to sort rows by Start time (UTC) header in descending order
Start Az.
Max El. time (UTC)
Max El. Az.
Max El.
End time (UTC)
End Az.
6 mins2025-02-12 13:12:58.113Z274.556° WNW2025-02-12 13:15:58.113Z311.173° NW17.715°2025-02-12 13:18:58.113Z350.581° N
9 mins2025-02-12 20:18:58.113Z344.034° N2025-02-12 20:22:58.113Z62.454° ENE39.317°2025-02-12 20:27:58.113Z134.298° SE
6 mins2025-02-12 22:03:58.113Z286.072° WNW2025-02-12 22:05:58.113Z259.983° W18.98°2025-02-12 22:09:58.113Z210.434° SW
8 mins2025-02-13 11:04:58.113Z187.832° SSW2025-02-13 11:08:58.113Z90.047° ESE39.752°2025-02-13 11:12:58.113Z38.533° NE
6 mins2025-02-13 12:49:58.113Z273.871° WNW2025-02-13 12:52:58.113Z315.306° NNW20.096°2025-02-13 12:55:58.113Z355.233° N
|